User: anonymous   Login
Location: Ahausen
(50.4985°N, 8.2722°E)
Time: 19:56:52
(UTC+00:00)
Language:

KKS-1 - Orbit

View from above orbital plane
View from above orbital plane
View from above satellite
View from above satellite

Ground track
Ground track

The orbit data is extracted from the following two-line orbital elements,

1 33499U 09002H   22177.59751845  .00000504  00000-0  80975-4 0  9994
2 33499  98.2171  59.7948 0007712 289.9133  70.1245 14.76029507721596
Epoch (UTC): 26 June 2022 14:20:25
Eccentricity: 0.0007712
inclination: 98.2171°
perigee height: 636 km
apogee height: 647 km
right ascension of ascending node: 59.7948°
argument of perigee: 289.9133°
revolutions per day: 14.76029507
mean anomaly at epoch: 70.1245°
orbit number at epoch: 72159

The dashed part of the orbit path shows where the satellite is in the earth's shadow,  

DLR